DELTA 1 DEB, 29190

Orbit data source: Space-Track

DELTA 1 DEB, 29190 is space debris in LEO originally from a launch on Thu, 11 Jan 1968 UTC launched from the Air Force Western Test Range (AFWTR). Debris objects in space refer to the collection of defunct objects orbiting the Earth. Examples of debris include non-operational satellites, rocket bodies, and fragments generated from explosions, collisions, or faulty payload assembly.

Loading next visibility...
Identifier
29190, 1968-002P
Orbit
LEO
Country
Flag of USUS
Related business
Manufacturer
Unknown
Mission
Spacecraft
Bus & Motor
Unknown
Mass
Unknown
Launch date (UTC)
1968-01-11 (58 years ago)
Launch vehicle
Unknown
Launch site
Air Force Western Test Range (AFWTR)
Object type
Payload
Rocket body
Debris
Shape & HBR
Unknown shape, 0.1 m
Radar Cross Section
Small (<0.1 m²)

Expand to show TLE details & history
Last TLE update: 2 months ago

TLE from 2 months ago
0 DELTA 1 DEB
1 29190U 68002P   26019.82989097  .00001748  00000-0  35417-2 0  9999
2 29190 105.8407 225.2398 0277860 298.9026  58.4454 13.23155301208492
Epoch: 2026-01-19T19:55Z
TLE epoch observation values (Epoch: 2026-01-19T19:55:02.579Z)
Latitude
-0.00005°
Longitude
167.25858°
Altitude
1,069.69 km
Speed
7.368 km/s
True Right ascension
15h 00m 57s
True Declination
0° 00' 00"
Sunlit
Object was in daylight at epoch
Visualization orbit readout
Latitude
Unknown
Longitude
Unknown
Altitude
Unknown
Speed
Unknown
Apparent Right ascension
Unknown
Apparent Declination
Unknown
Sunlit
N/A
Visualization observer readout
Local Sidereal Time
23:52:16
Azimuth
Unknown
Elevation
Unknown
Doppler factor
Unknown
Orbital elements
Apogee altitude
1,380.174 km
Perigee altitude
960.685 km
Semi-major axis
7,548.567 km
Eccentricity
0.02779
Inclination
105.8407°
RAAN
225.2398°
Arg. of periapsis
298.9026°
True anomaly
61.20777°
Mean anomaly
58.4454°
Eccentric anomaly
59.82165°
Mean motion
3.30938 °/min
Orbital period
108.78 mins
BSTAR
0.0035417
Loading maneuver chart data...
Computing Atmospheric mass density...
Loading historical data...
Loading historical data...
Loading historical data...
Loading historical data...
Loading historical data...
Loading historical data...
Loading historical data...

Documentation

Showing up to 5 results
|